Location: ???????
(55.4362°N, 38.1183°E)
Time: 19:03:02
(UTC+00:00)

USA 267 - Pass Details

Date: 31 October 2021
Orbit: 1101 x 1107 km, 123.0° (Epoch: 27 November)

Event Time Altitude Azimuth Distance (km) Brightness Sun altitude
Exits shadow 18:08:24 11° 216° (SW) 2,845 5.4 -36.0°
Maximum altitude 18:10:50 14° 239° (WSW) 2,678 5.5 -36.3°
Drops below altitude 10° 18:13:58 10° 268° (W) 2,961 6.1 -36.7°
Sets 18:18:02 0° 293° (WNW) 3,924 7.1 -37.2°
